Weather - Helsinki Query any day in the database

Current weather  

Weather data for a selected day (2006-01-01 -2020-10-30)
Enter date:     <-     scroll days         ->
day curves
Low temperature°C -3.023:50
High temperature°C +7.003:50
Low wind chill°C -8.723:20
Average temperature°C +1.8 
High wind speed (10 min) m/s 17.004:50
Low pressurehPa 989.003:50
High pressurehPa 1020.023:50
Low R.H% 5111:50
High R.H% 8018:50
Day weather data as a table
Date Time Temp
°C
Chill
°C
Pressure
hPA
Wind
m/s
Hum
%
Precip
mm
2013-12-13 23:50:00 -3.0  -8.0  1020.0 4.0 79 -
2013-12-13 23:20:00 -3.0  -8.7  1020.0 5.0 79 -
2013-12-13 22:50:00 -3.0  -8.0  1020.0 4.0 79 -
2013-12-13 22:20:00 -2.0  -7.4  1020.0 5.0 74 -
2013-12-13 21:50:00 -2.0  -7.4  1019.0 5.0 79 -
2013-12-13 21:20:00 -2.0  -6.8  1019.0 4.0 79 -
2013-12-13 20:50:00 -2.0  -6.8  1018.0 4.0 79 -
2013-12-13 20:20:00 -2.0  -7.4  1018.0 5.0 79 -
2013-12-13 19:50:00 -1.0  -5.5  1018.0 4.0 74 -
2013-12-13 19:20:00 -1.0  -6.2  1018.0 5.0 74 -
2013-12-13 18:50:00 -1.0  -6.2  1017.0 5.0 80 -
2013-12-13 18:20:00 -1.0  -6.2  1017.0 5.0 74 -
2013-12-13 17:50:00 -1.0  -5.5  1017.0 4.0 74 -
2013-12-13 17:20:00 -1.0  -5.5  1016.0 4.0 74 -
2013-12-13 16:50:00 0.0  -4.9  1016.0 5.0 69 -
2013-12-13 16:20:00 0.0  -4.9  1015.0 5.0 69 -
2013-12-13 15:50:00 0.0  -4.9  1015.0 5.0 69 -
2013-12-13 15:20:00 0.0  -5.5  1014.0 6.0 63 -
2013-12-13 14:50:00 1.0  -4.6  1013.0 7.0 59 -
2013-12-13 14:20:00 1.0  -4.6  1013.0 7.0 55 -
2013-12-13 13:50:00 1.0  -5.0  1012.0 8.0 55 -
2013-12-13 13:20:00 1.0  -5.7  1011.0 10.0 55 -
2013-12-13 12:50:00 2.0  -4.7  1011.0 11.0 51 -
2013-12-13 12:20:00 2.0  -4.4  1010.0 10.0 51 -
2013-12-13 11:50:00 2.0  -4.4  1009.0 10.0 51 -
2013-12-13 11:20:00 2.0  -4.7  1007.0 11.0 55 -
2013-12-13 10:50:00 2.0  -4.4  1006.0 10.0 59 -
2013-12-13 10:20:00 3.0  -3.4  1005.0 11.0 55 -
2013-12-13 09:20:00 3.0  -3.9  1002.0 13.0 64 -
2013-12-13 08:50:00 3.0  -3.9  1000.0 13.0 69 -
2013-12-13 08:20:00 3.0  -3.9  998.0 13.0 64 -
2013-12-13 07:50:00 4.0  -2.5  996.0 13.0 60 -
2013-12-13 07:20:00 4.0  -2.7  995.0 14.0 69 -
2013-12-13 06:50:00 4.0  -2.7  993.0 14.0 75 -
2013-12-13 06:20:00 5.0  -1.1  992.0 13.0 70 -
2013-12-13 05:50:00 5.0  -1.3  991.0 14.0 65 -
2013-12-13 05:20:00 6.0  -0.2  991.0 15.0 60 -
2013-12-13 04:50:00 6.0  -0.5  990.0 17.0 60 -
2013-12-13 04:20:00 6.0  -0.5  990.0 17.0 60 -
2013-12-13 03:50:00 7.0  1.4  989.0 14.0 56 -
2013-12-13 03:20:00 7.0  0.9  989.0 17.0 60 -
2013-12-13 02:50:00 7.0  1.6  989.0 13.0 60 -
2013-12-13 01:50:00 7.0  2.0  989.0 11.0 65 -
2013-12-13 00:50:00 6.0  0.9  991.0 10.0 70 -
2013-12-13 00:20:00 6.0  0.9  991.0 10.0 70 -
Unit conversions: